Santa Maria, CA

11:37 PM PDT on May 23, 2017 (GMT -0700)
Santa Maria Public Airport / Captain G. Allan Hancock Field

Weather History for KSMX - November, 2011

Change the Weather History Date:

Friday, November 18, 2011

  Actual Average Record
Temperature  
Mean Temperature 54 °F 55 °F  
Max Temperature 62 °F 68 °F 92 °F (1936)
Min Temperature 45 °F 42 °F 27 °F (1975)
Degree Days  
Heating Degree Days 11 10  
Month to date heating degree days 178 148  
Since 1 July heating degree days 425 512  
Cooling Degree Days 0 0  
Month to date cooling degree days 0 0  
Year to date cooling degree days 106 100  
Growing Degree Days 2 (Base 50)    
Moisture  
Dew Point 47 °F    
Average Humidity 79    
Maximum Humidity 100    
Minimum Humidity 57    
Precipitation  
Precipitation 0.00 in 0.04 in 1.02 in (1934)
Month to date precipitation 0.67 0.74  
Year to date precipitation 12.48 11.24  
Since 1 July precipitation 1.51  
Sea Level Pressure  
Sea Level Pressure 30.01 in    
Wind  
Wind Speed 6 mph (NW)    
Max Wind Speed 23 mph    
Max Gust Speed 38 mph    
Visibility 4 miles    
Events Fog    
T = Trace of Precipitation, MM = Missing Value Source: NWS Daily Summary

Daily Weather History Graph

Daily Weather History Graph

Search for Another Location

Airport or City:

Trip Planner

Search our weather history database for the weather conditions in past years. The results will help you decide how hot, cold, wet, or windy it might be!

Date:

Astronomy

Nov. 18, 2011 Rise Set
Actual Time 6:38 AM PST 4:54 PM PST
Civil Twilight 6:11 AM PST 5:21 PM PST
Nautical Twilight 5:41 AM PST 5:52 PM PST
Astronomical Twilight 5:11 AM PST 6:22 PM PST
Moon No Moon Rise 12:28 PM PST (11/18)
Length of Visible Light 11h 10m
Length of Day
10h 15m
Waning Gibbous, 48% of the Moon is Illuminated
Nov 18
Waning Gibbous
Nov 24
New
Dec 2
First Quarter
Dec 10
Full
Dec 17
Last Quarter

Hourly Weather History & Observations

Time (PST) Temp. Windchill Dew Point Humidity Pressure Visibility Wind Dir Wind Speed Gust Speed Precip Events Conditions
12:34 AM 48.2 °F - 46.4 °F 93% 30.04 in 0.5 mi Calm Calm - N/A Fog Fog
12:40 AM 48.2 °F - 46.4 °F 93% 30.04 in 1.5 mi NE 3.5 mph - N/A   Overcast
12:43 AM 48.2 °F - 46.4 °F 93% 30.04 in 3.0 mi NE 3.5 mph - N/A   Overcast
12:51 AM 50.0 °F - 48.0 °F 93% 30.04 in 5.0 mi NNE 4.6 mph - N/A   Overcast
1:35 AM 51.8 °F - 48.2 °F 88% 30.02 in 1.5 mi Calm Calm - N/A   Overcast
1:39 AM 51.8 °F - 48.2 °F 88% 30.02 in 0.8 mi Calm Calm - N/A   Overcast
1:51 AM 50.0 °F - 48.9 °F 96% 30.03 in 0.5 mi Calm Calm - N/A Fog Fog
2:07 AM 50.0 °F - 48.2 °F 94% 30.02 in 0.2 mi Calm Calm - N/A Fog Fog
2:34 AM 50.0 °F - 48.2 °F 94% 30.02 in 0.2 mi Calm Calm - N/A Fog Fog
2:51 AM 48.9 °F - 48.0 °F 97% 30.02 in 0.2 mi Calm Calm - N/A Fog Fog
3:51 AM 48.9 °F - 46.9 °F 93% 30.01 in 0.2 mi Calm Calm - N/A Fog Fog
4:51 AM 46.9 °F - 45.0 °F 93% 30.01 in 0.2 mi Calm Calm - N/A Fog Fog
5:51 AM 46.0 °F - 44.1 °F 93% 30.02 in 0.2 mi Calm Calm - N/A Fog Fog
5:59 AM 44.6 °F 43.1 °F 44.6 °F 100% 30.00 in 0.2 mi East 3.5 mph - N/A Fog Fog
6:07 AM 46.4 °F - 44.6 °F 93% 30.01 in 0.5 mi Calm Calm - N/A Fog Fog
6:33 AM 46.4 °F 45.2 °F 44.6 °F 93% 30.01 in 1.5 mi ESE 3.5 mph - N/A   Overcast
6:42 AM 46.4 °F 44.3 °F 44.6 °F 93% 30.01 in 3.0 mi East 4.6 mph - N/A   Overcast
6:51 AM 46.9 °F - 45.0 °F 93% 30.02 in 2.0 mi Calm Calm - N/A   Overcast
6:58 AM 46.4 °F 45.2 °F 44.6 °F 93% 30.01 in 4.0 mi East 3.5 mph - N/A   Overcast
7:45 AM 48.2 °F - 48.2 °F 100% 30.02 in 0.8 mi Calm Calm - N/A   Overcast
7:51 AM 50.0 °F - 48.0 °F 93% 30.03 in 0.2 mi Calm Calm - N/A Fog Fog
8:51 AM 51.1 °F - 48.9 °F 92% 30.03 in 0.2 mi Calm Calm - N/A Fog Fog
9:32 AM 51.8 °F - 50.0 °F 94% 30.02 in 0.5 mi West 3.5 mph - N/A Fog Fog
9:39 AM 51.8 °F - 50.0 °F 94% 30.02 in 1.5 mi West 4.6 mph - N/A   Overcast
9:42 AM 51.8 °F - 50.0 °F 94% 30.02 in 3.0 mi West 4.6 mph - N/A   Overcast
9:51 AM 52.0 °F - 51.1 °F 97% 30.03 in 4.0 mi Calm Calm - N/A   Mostly Cloudy
10:27 AM 55.4 °F - 50.0 °F 82% 30.01 in 7.0 mi WNW 6.9 mph - N/A   Scattered Clouds
10:51 AM 59.0 °F - 50.0 °F 72% 30.01 in 8.0 mi WNW 10.4 mph - N/A   Scattered Clouds
11:21 AM 60.8 °F - 50.0 °F 68% 30.00 in 10.0 mi WNW 13.8 mph - N/A   Mostly Cloudy
11:51 AM 61.0 °F - 48.9 °F 64% 29.99 in 10.0 mi NW 15.0 mph - N/A   Scattered Clouds
12:51 PM 61.0 °F - 48.0 °F 62% 29.97 in 10.0 mi WNW 17.3 mph - N/A   Scattered Clouds
1:51 PM 59.0 °F - 46.9 °F 64% 29.96 in 10.0 mi WNW 15.0 mph - N/A   Mostly Cloudy
2:51 PM 59.0 °F - 44.1 °F 58% 29.96 in 10.0 mi NW 19.6 mph 26.5 mph N/A   Mostly Cloudy
3:51 PM 57.9 °F - 46.0 °F 65% 29.96 in 10.0 mi WNW 21.9 mph - N/A   Scattered Clouds
4:51 PM 54.0 °F - 45.0 °F 72% 29.96 in 10.0 mi WNW 13.8 mph - N/A   Scattered Clouds
5:51 PM 53.1 °F - 45.0 °F 74% 29.96 in 10.0 mi WNW 9.2 mph - N/A   Mostly Cloudy
6:51 PM 52.0 °F - 44.1 °F 74% 29.98 in 10.0 mi WNW 6.9 mph - N/A   Overcast
7:51 PM 50.0 °F - 43.0 °F 77% 29.98 in 10.0 mi Calm Calm - N/A   Clear
8:51 PM 48.9 °F - 44.1 °F 83% 29.99 in 10.0 mi Calm Calm - N/A   Clear
9:51 PM 46.9 °F - 44.1 °F 90% 29.99 in 10.0 mi Calm Calm - N/A   Clear
10:51 PM 46.0 °F - 43.0 °F 89% 30.00 in 7.0 mi Calm Calm - N/A   Clear
11:51 PM 46.9 °F - 44.1 °F 90% 29.99 in 9.0 mi NNW 6.9 mph - N/A   Partly Cloudy